Location: Mentone
(34.5413°N, 85.5351°W)
Time: 03:15:41
(UTC-05:00)

Uosat F - Visible Passes

Search period start: 20 April 2014 00:00
Search period end: 30 April 2014 00:00
Orbit: 751 x 763 km, 98.7° (Epoch: 19 April)

Date Brightness Start Highest point End Pass type
(mag) Time Alt. Az. Time Alt. Az. Time Alt. Az.
20 Apr 14.0 03:26:17 10° E 03:26:45 10° E 03:27:13 10° E visible
20 Apr 11.0 05:00:59 10° N 05:05:58 70° WNW 05:10:55 10° SSW visible
21 Apr 12.1 04:22:07 10° NNE 04:26:54 45° E 04:31:40 10° S visible
22 Apr 13.5 03:44:20 10° NE 03:47:38 18° E 03:50:56 10° SE visible
22 Apr 11.5 05:21:52 10° N 05:26:34 43° WNW 05:31:16 10° SW visible
23 Apr 11.2 04:42:37 10° NNE 04:47:37 75° ESE 04:52:36 10° S visible
24 Apr 12.8 04:04:09 10° NE 04:08:28 29° E 04:12:45 10° SSE visible
25 Apr 13.9 03:27:58 10° ENE 03:29:06 11° E 03:30:13 10° ESE visible
25 Apr 11.1 05:03:19 10° N 05:08:17 67° WNW 05:13:13 10° SSW visible
26 Apr 12.0 04:24:24 10° NNE 04:29:14 47° E 04:34:01 10° S visible
27 Apr 13.5 03:46:32 10° NE 03:49:58 18° E 03:53:23 10° SE visible
27 Apr 11.6 05:24:12 10° N 05:28:52 41° WNW 05:33:32 10° SW visible
28 Apr 11.2 04:44:55 10° NNE 04:49:56 78° ESE 04:54:55 10° S visible
29 Apr 12.8 04:06:24 10° NE 04:10:46 30° E 04:15:07 10° SSE visible
